Home > Weather > McAllen > Past weeks

Flag for USA Past Weather in McAllen, Texas, USA — Yesterday and Last 2 Weeks

Now
82 °F

Clear.


Feels Like: 89 °F
Forecast: 82 / 98 °F
Wind: 8 mph from Southeast

Location: Miller International Airport

Current Time: Jul 26, 2016 at 3:37:06 AM

Latest Report: Jul 26, 2016 at 2:53 AM


Visibility: 10 mi

Pressure: 29.85 "Hg

Humidity: 82%

Dew Point: 76 °F

Location of McAllenLocation

Past Weather in McAllen — Graph

°F

McAllen Temperature Yesterday

Maximum temperature yesterday: 102 °F (at 2:53 PM)
Minimum temperature yesterday: 80 °F (at 6:53 AM)
Average temperature yesterday: 90 °F

High & Low Weather Summary for the Past Weeks

 TemperatureHumidityPressure
High103 °F (Jul 14, 3:53 PM)88% (Jul 13, 5:53 AM)30.13 "Hg (Jul 13, 5:53 AM)
Low78 °F (Jul 22, 3:53 AM)30% (Jul 15, 1:53 PM)29.82 "Hg (Jul 24, 4:53 PM)
Average89 °F62%29.97 "Hg
* Reported Jul 11 1:53 AM — Jul 26 1:53 AM, McAllen, Weather by CustomWeather, © 2016

Note: Actual official high and low records may vary slightly from our data, if they occured in-between our weather recording intervals... More about our weather records

Advertising

McAllen Weather History for the Previous 24 Hours

Scroll right to see more
 ConditionsComfort  
Time TempWeatherWind HumidityBarometerVisibility
1:53 AM
Tue, Jul 26
84 °FClear.10 mph77%29.86 "Hg10 mi
12:53 AM85 °FPassing clouds.13 mph77%29.88 "Hg10 mi
11:53 PM
Mon, Jul 25
85 °FClear.12 mph75%29.89 "Hg10 mi
10:53 PM86 °FClear.10 mph72%29.88 "Hg10 mi
9:53 PM87 °FClear.15 mph67%29.86 "Hg10 mi
8:53 PM89 °FSunny.17 mph59%29.85 "Hg10 mi
7:53 PM92 °FSunny.16 mph52%29.83 "Hg10 mi
6:53 PM98 °FSunny.17 mph40%29.82 "Hg10 mi
5:53 PM99 °FSunny.12 mph37%29.82 "Hg10 mi
4:53 PM100 °FPassing clouds.13 mph38%29.82 "Hg10 mi
3:53 PM101 °FPassing clouds.9 mph36%29.83 "Hg10 mi
2:53 PM102 °FSunny.7 mph35%29.84 "Hg10 mi
1:53 PM101 °FSunny.9 mph36%29.86 "Hg10 mi
12:53 PM98 °FSunny.12 mph39%29.88 "Hg10 mi
11:53 AM95 °FSunny.9 mph47%29.91 "Hg10 mi
10:53 AM93 °FSunny.15 mph52%29.93 "Hg9 mi
9:53 AM90 °FScattered clouds.12 mph61%29.94 "Hg7 mi
8:53 AM86 °FHaze.12 mph75%29.93 "Hg5 mi
7:53 AM82 °FClear.8 mph85%29.92 "Hg2 mi
6:53 AM80 °FFog.6 mph87%29.90 "Hg4 mi
5:53 AM81 °FClear.6 mph85%29.89 "Hg7 mi
4:53 AM82 °FPassing clouds.8 mph82%29.88 "Hg10 mi
3:53 AM82 °FPassing clouds.6 mph82%29.88 "Hg8 mi
Weather by CustomWeather, © 2016

See weather overviewHow to use our weather pages